Meteo pe oră la Dacbogi

Astăzi, 15 Aprilie, Joi

Timp Temperatura Precipitaţii Vânt Presiune Umiditate
00:00 -1°C° 0.5 mm 4 m/s 747 mmHg 99%
01:00 -1°C° 0.5 mm 4 m/s 747 mmHg 99%
02:00 0°C° 0.5 mm 3 m/s 747 mmHg 99%
03:00 0°C° 0.5 mm 3 m/s 747 mmHg 99%
04:00 +1°C° 0.5 mm 2 m/s 747 mmHg 99%
05:00 +1°C° 0.4 mm 2 m/s 747 mmHg 99%
06:00 +1°C° 0.4 mm 2 m/s 747 mmHg 99%
07:00 +1°C° 0.4 mm 2 m/s 747 mmHg 99%
08:00 +1°C° 0.2 mm 2 m/s 747 mmHg 99%
09:00 +2°C° 0.2 mm 1 m/s 747 mmHg 99%
10:00 +3°C° 0.2 mm 1 m/s 747 mmHg 99%
11:00 +3°C° 0.1 mm 1 m/s 747 mmHg 99%
12:00 +3°C° 0.1 mm 1 m/s 747 mmHg 99%
13:00 +3°C° 0.1 mm 1 m/s 747 mmHg 99%
14:00 +3°C° 0 mm 1 m/s 747 mmHg 99%
15:00 +3°C° 0 mm 1 m/s 747 mmHg 99%
16:00 +3°C° 0 mm 1 m/s 747 mmHg 99%
17:00 +3°C° 0 mm 1 m/s 747 mmHg 99%
18:00 +3°C° 0 mm 1 m/s 747 mmHg 99%
19:00 +3°C° 0 mm 1 m/s 747 mmHg 99%
20:00 +3°C° 0 mm 1 m/s 747 mmHg 99%
21:00 +2°C° 0 mm 2 m/s 747 mmHg 99%
22:00 +2°C° 0 mm 2 m/s 747 mmHg 99%
23:00 +2°C° 0.3 mm 2 m/s 747 mmHg 99%

Mâine, 16 Aprilie, Vineri

Timp Temperatura Precipitaţii Vânt Presiune Umiditate
00:00 +3°C° 0.3 mm 2 m/s 747 mmHg 99%
01:00 +2°C° 0.3 mm 3 m/s 746 mmHg 99%
02:00 +2°C° 0.4 mm 3 m/s 746 mmHg 99%
03:00 +2°C° 0.4 mm 3 m/s 746 mmHg 99%
04:00 +2°C° 0.4 mm 3 m/s 746 mmHg 99%
05:00 +2°C° 1 mm 3 m/s 746 mmHg 99%
06:00 +2°C° 1 mm 3 m/s 746 mmHg 99%
07:00 +2°C° 1 mm 3 m/s 746 mmHg 99%
08:00 +2°C° 0.4 mm 3 m/s 746 mmHg 99%
09:00 +2°C° 0.4 mm 3 m/s 746 mmHg 98%
10:00 +3°C° 0.4 mm 3 m/s 746 mmHg 98%
11:00 +3°C° 0.1 mm 3 m/s 746 mmHg 98%
12:00 +4°C° 0.1 mm 3 m/s 746 mmHg 98%
13:00 +4°C° 0.1 mm 3 m/s 746 mmHg 98%
14:00 +5°C° 0.1 mm 3 m/s 746 mmHg 97%
15:00 +5°C° 0.1 mm 3 m/s 746 mmHg 97%
16:00 +5°C° 0.1 mm 3 m/s 746 mmHg 96%
17:00 +5°C° 0.7 mm 4 m/s 747 mmHg 97%
18:00 +5°C° 0.7 mm 4 m/s 747 mmHg 97%
19:00 +5°C° 0.7 mm 4 m/s 747 mmHg 98%
20:00 +5°C° 0.1 mm 4 m/s 747 mmHg 98%
21:00 +5°C° 0.1 mm 4 m/s 747 mmHg 98%
22:00 +5°C° 0.1 mm 4 m/s 747 mmHg 98%
23:00 +5°C° 0.1 mm 3 m/s 747 mmHg 98%

Poimâine, 17 Aprilie, Sâmbătă

Timp Temperatura Precipitaţii Vânt Presiune Umiditate
00:00 +5°C° 0.1 mm 3 m/s 747 mmHg 98%
01:00 +5°C° 0.1 mm 3 m/s 747 mmHg 98%
02:00 +5°C° 0.3 mm 3 m/s 747 mmHg 98%
03:00 +5°C° 0.3 mm 3 m/s 747 mmHg 97%
04:00 +5°C° 0.3 mm 3 m/s 747 mmHg 97%
05:00 +5°C° 0.1 mm 3 m/s 747 mmHg 95%
06:00 +5°C° 0.1 mm 4 m/s 748 mmHg 93%
07:00 +5°C° 0.1 mm 4 m/s 748 mmHg 91%
08:00 +5°C° 0 mm 4 m/s 748 mmHg 90%
09:00 +5°C° 0 mm 4 m/s 748 mmHg 89%
10:00 +6°C° 0 mm 4 m/s 749 mmHg 88%
11:00 +6°C° 0 mm 4 m/s 749 mmHg 84%
12:00 +7°C° 0 mm 5 m/s 749 mmHg 81%
13:00 +7°C° 0 mm 5 m/s 749 mmHg 78%
14:00 +7°C° 0 mm 4 m/s 749 mmHg 80%
15:00 +6°C° 0 mm 4 m/s 749 mmHg 83%
16:00 +6°C° 0 mm 4 m/s 749 mmHg 85%
17:00 +5°C° 0 mm 4 m/s 750 mmHg 87%
18:00 +5°C° 0 mm 3 m/s 750 mmHg 89%
19:00 +4°C° 0 mm 3 m/s 750 mmHg 90%
20:00 +4°C° 0 mm 3 m/s 750 mmHg 91%
21:00 +4°C° 0 mm 3 m/s 750 mmHg 92%
22:00 +4°C° 0 mm 3 m/s 750 mmHg 93%
23:00 +4°C° 0 mm 3 m/s 750 mmHg 93%

18 Aprilie, Duminică

Timp Temperatura Precipitaţii Vânt Presiune Umiditate
00:00 +4°C° 0 mm 2 m/s 750 mmHg 93%
01:00 +4°C° 0 mm 2 m/s 750 mmHg 94%
02:00 +4°C° 0 mm 2 m/s 750 mmHg 94%
03:00 +4°C° 0 mm 2 m/s 750 mmHg 94%
04:00 +4°C° 0 mm 2 m/s 750 mmHg 95%
05:00 +4°C° 0 mm 3 m/s 750 mmHg 93%
06:00 +4°C° 0 mm 3 m/s 750 mmHg 91%
07:00 +4°C° 0 mm 3 m/s 750 mmHg 89%
08:00 +7°C° 0 mm 3 m/s 750 mmHg 82%
09:00 +8°C° 0 mm 3 m/s 750 mmHg 75%
10:00 +10°C° 0 mm 3 m/s 750 mmHg 67%
11:00 +11°C° 0 mm 3 m/s 750 mmHg 61%
12:00 +12°C° 0 mm 4 m/s 750 mmHg 55%
13:00 +13°C° 0 mm 4 m/s 750 mmHg 49%
14:00 +13°C° 0 mm 4 m/s 750 mmHg 54%
15:00 +12°C° 0 mm 4 m/s 750 mmHg 59%
16:00 +11°C° 0 mm 4 m/s 750 mmHg 64%
17:00 +11°C° 0 mm 3 m/s 750 mmHg 67%
18:00 +10°C° 0 mm 3 m/s 750 mmHg 69%
19:00 +9°C° 0 mm 3 m/s 750 mmHg 72%
20:00 +9°C° 0 mm 3 m/s 750 mmHg 74%
21:00 +8°C° 0 mm 3 m/s 750 mmHg 75%
22:00 +8°C° 0 mm 3 m/s 750 mmHg 77%
23:00 +8°C° 0 mm 3 m/s 750 mmHg 76%

19 Aprilie, Luni

Timp Temperatura Precipitaţii Vânt Presiune Umiditate
00:00 +8°C° 0 mm 3 m/s 749 mmHg 75%
01:00 +8°C° 0 mm 2 m/s 749 mmHg 74%
02:00 +8°C° 0 mm 2 m/s 749 mmHg 76%
03:00 +7°C° 0 mm 3 m/s 749 mmHg 78%
04:00 +7°C° 0 mm 3 m/s 748 mmHg 79%
05:00 +7°C° 0.1 mm 3 m/s 748 mmHg 80%
06:00 +7°C° 0.1 mm 4 m/s 748 mmHg 82%
07:00 +7°C° 0.1 mm 4 m/s 748 mmHg 83%
08:00 +7°C° 0.1 mm 5 m/s 747 mmHg 84%
09:00 +7°C° 0.1 mm 5 m/s 747 mmHg 84%
10:00 +7°C° 0.1 mm 6 m/s 747 mmHg 85%
11:00 +7°C° 0.1 mm 5 m/s 747 mmHg 85%
12:00 +7°C° 0.1 mm 5 m/s 747 mmHg 86%
13:00 +8°C° 0.1 mm 5 m/s 746 mmHg 86%
14:00 +7°C° 0.2 mm 4 m/s 746 mmHg 88%
15:00 +7°C° 0.2 mm 4 m/s 746 mmHg 89%
16:00 +7°C° 0.2 mm 4 m/s 745 mmHg 91%
17:00 +7°C° 0.5 mm 4 m/s 745 mmHg 92%
18:00 +8°C° 0.5 mm 3 m/s 744 mmHg 94%
19:00 +8°C° 0.5 mm 3 m/s 744 mmHg 96%
20:00 +8°C° 0.2 mm 3 m/s 744 mmHg 95%
21:00 +7°C° 0.2 mm 4 m/s 743 mmHg 95%
22:00 +7°C° 0.2 mm 4 m/s 743 mmHg 95%
23:00 +7°C° 0.3 mm 4 m/s 742 mmHg 95%

20 Aprilie, Marţi

Timp Temperatura Precipitaţii Vânt Presiune Umiditate
00:00 +7°C° 0.3 mm 4 m/s 742 mmHg 96%
01:00 +7°C° 0.3 mm 4 m/s 741 mmHg 96%
02:00 +7°C° 0.2 mm 4 m/s 741 mmHg 96%
03:00 +7°C° 0.2 mm 4 m/s 740 mmHg 96%
04:00 +7°C° 0.2 mm 4 m/s 740 mmHg 96%
05:00 +7°C° 0.1 mm 4 m/s 739 mmHg 96%
06:00 +7°C° 0.1 mm 4 m/s 739 mmHg 96%
07:00 +7°C° 0.1 mm 5 m/s 739 mmHg 96%
08:00 +7°C° 0.2 mm 5 m/s 738 mmHg 95%
09:00 +7°C° 0.2 mm 5 m/s 738 mmHg 94%
10:00 +7°C° 0.2 mm 5 m/s 737 mmHg 93%
11:00 +7°C° 0.3 mm 5 m/s 737 mmHg 93%
12:00 +7°C° 0.3 mm 5 m/s 737 mmHg 92%
13:00 +7°C° 0.3 mm 5 m/s 737 mmHg 91%
14:00 +6°C° 1 mm 5 m/s 737 mmHg 92%
15:00 +6°C° 1 mm 5 m/s 737 mmHg 92%
16:00 +5°C° 1 mm 5 m/s 736 mmHg 92%
17:00 +5°C° 0.6 mm 5 m/s 736 mmHg 93%
18:00 +5°C° 0.6 mm 5 m/s 736 mmHg 93%
19:00 +4°C° 0.6 mm 4 m/s 736 mmHg 94%
20:00 +3°C° 0.3 mm 5 m/s 736 mmHg 94%
21:00 +3°C° 0.3 mm 5 m/s 736 mmHg 94%
22:00 +3°C° 0.3 mm 5 m/s 736 mmHg 94%
23:00 +2°C° 0.5 mm 5 m/s 736 mmHg 95%
Arată mai mult

Formular de consimțământ

Meteoprog și furnizorii noștri de servicii pot stoca și accesa date personale, precum cookies, identificatori de dispozitiv sau alte tehnologii similare pe dispozitivul dumneavoastră și procesa astfel de date pentru a personaliza conținutul și reclamele, dar și pentru a oferi caracteristici de social media și pentru a analiza traficul.

  • Stocarea și/sau accesarea informațiilor pe dispozitivul dumneavoastră

    Cookies, identificatori de dispozitiv sau alte informații pot fi stocate sau accesate pe dispozitiv în scopurile indicate mai sus.

  • Reclame și conținut personalizat, evaluarea reclamelor și a conținutului, informații despre audiențe și dezvoltarea produselor

    Reclamele și conținutul pot fi personalizate pe baza unui profil. Pot fi adăugate date suplimentare pentru a personaliza mai bine reclamele și conținutul. Performanța reclamelor și conținutului poate fi măsurată. Pot fi obținute informații despre utilizatorii care au văzut reclamele și conținutul. Aceste date pot fi utilizate pentru a dezvolta sau îmbunătăți experiența utilizatorilor, sistemele și software-ul.

Dând clic pe ‘Sunt de acord’, permiteți utilizarea cookie-urilor menționate, a identificatorilor de dispozitiv, balizelor web sau altor tehnologii similare. Setările pot fi modificate din browser-ul dispozitivului dumneavoastră.

În anumite scopuri, interesele legitime pot prima asupra consimțământului. Puteți citi mai multe informații în acest sens în Politica privind Confidențialitatea Datelor și Cookie.